HULIANWAN GAOGUI-03 (H*)

Last updated on Wed Sep 09 2026 00:03:04 GMT+0000 (Coordinated Universal Time)

1 61503U 24181A 26251.50107553 -.00000262 00000+0 00000+0 0 9992 2 61503 0.0693 346.8995 0000861 104.0846 359.8380 1.00270380 7663
UTC large
Height (km)
Speed (km/s)
/
Latitude / Longitude
Inclination (degrees)
Orbital Period (minutes)
Azimuth
Elevation
Range (km)
Doppler Factor

Next 0 passes for location: London (51.5072 / 0.1276)

No passes found over London.
HULIANWAN GAOGUI-03 (H*)